GW0717 Weather Reports


Display with metric or nautical units.
time (UTC)temp
F
wind
direction
speed
MPH
gust
MPH
rain 1hr
in
rain 24hr
in
rain mn
in
humidity
%
barometer
mb
20220816070009 68 0 0.0 1.0 0.00 0.00 0.00 81 1010.6
20220816065510 68 0 0.0 1.0 0.00 0.00 0.00 80 1010.6
20220816065009 68 0 0.0 1.0 0.00 0.00 0.00 81 1010.7
20220816064513 68 0 0.0 1.0 0.00 0.00 0.00 81 1010.7
20220816064016 68 0 0.0 0.0 0.00 0.00 0.00 80 1010.7
20220816063513 69 0 0.0 0.0 0.00 0.00 0.00 80 1010.7
20220816063009 69 0 0.0 1.0 0.00 0.00 0.00 80 1010.8
20220816062517 69 0 0.0 1.0 0.00 0.00 0.00 79 1010.7
20220816062009 69 0 0.0 1.0 0.00 0.00 0.00 79 1010.8
20220816061512 69 191 0.0 1.0 0.00 0.00 0.00 78 1010.7
20220816061009 69 0 0.0 2.0 0.00 0.00 0.00 78 1010.8
20220816060508 69 185 1.0 2.0 0.00 0.00 0.00 78 1010.7
20220816060009 69 194 1.0 2.0 0.00 0.00 0.00 78 1010.9
20220816055510 69 197 1.0 1.0 0.00 0.00 0.00 78 1010.9
20220816055009 69 153 0.0 1.0 0.00 0.00 0.00 78 1010.9
20220816054510 69 195 0.0 3.0 0.00 0.00 0.00 78 1010.8
20220816054014 69 185 0.0 3.0 0.00 0.00 0.00 78 1010.8
20220816053510 70 128 1.0 3.0 0.00 0.00 0.00 77 1010.8
20220816053013 69 204 1.0 3.0 0.00 0.00 0.00 77 1010.9
20220816052515 70 203 1.0 3.0 0.00 0.00 0.00 77 1010.8
20220816052012 70 180 1.0 4.0 0.00 0.00 0.00 78 1010.8
20220816051509 70 201 1.0 4.0 0.00 0.00 0.00 78 1010.9
20220816051009 70 148 1.0 4.0 0.00 0.00 0.00 78 1010.9
20220816050517 70 186 0.0 5.0 0.00 0.00 0.00 77 1010.9
20220816050010 70 189 3.0 5.0 0.00 0.00 0.00 77 1010.9
20220816045515 70 193 4.0 5.0 0.00 0.00 0.00 77 1010.9
20220816045010 70 192 2.0 4.0 0.00 0.00 0.00 77 1010.8
20220816044509 70 139 2.0 4.0 0.00 0.00 0.00 77 1010.8
20220816044009 70 203 2.0 3.0 0.00 0.00 0.00 76 1010.8
20220816043516 70 182 1.0 4.0 0.00 0.00 0.00 76 1010.9
20220816043011 70 138 2.0 4.0 0.00 0.00 0.00 76 1010.9
20220816042510 70 175 2.0 6.0 0.00 0.00 0.00 75 1010.9
20220816042011 70 190 2.0 6.0 0.00 0.00 0.00 75 1010.9
20220816041509 71 160 2.0 5.0 0.00 0.00 0.00 75 1010.6
20220816041010 71 202 2.0 5.0 0.00 0.00 0.00 75 1010.8
20220816040514 71 162 3.0 7.0 0.00 0.00 0.00 75 1010.8
20220816040011 71 197 4.0 8.0 0.00 0.00 0.00 74 1010.6
20220816035511 71 183 5.0 8.0 0.00 0.00 0.00 73 1010.5
20220816035009 71 157 3.0 7.0 0.00 0.00 0.00 72 1010.4
20220816034513 71 182 3.0 7.0 0.00 0.00 0.00 72 1010.4
20220816034012 72 127 2.0 6.0 0.00 0.00 0.00 72 1010.3
20220816033512 72 198 3.0 6.0 0.00 0.00 0.00 71 1010.2
20220816033012 72 173 4.0 8.0 0.00 0.00 0.00 70 1010.2
20220816032510 72 216 4.0 8.0 0.00 0.00 0.00 69 1010.0
20220816032012 72 190 1.0 6.0 0.00 0.00 0.00 70 1010.0
20220816031513 72 211 3.0 6.0 0.00 0.00 0.00 69 1009.8
20220816031013 72 200 3.0 7.0 0.00 0.00 0.00 67 1009.6
20220816030510 73 190 3.0 7.0 0.00 0.00 0.00 67 1009.8
20220816030010 73 123 4.0 8.0 0.00 0.00 0.00 68 1009.8
20220816025510 73 206 3.0 10.0 0.00 0.00 0.00 67 1009.7
20220816025009 73 215 5.0 10.0 0.00 0.00 0.00 65 1009.6
20220816024522 74 154 6.0 10.0 0.00 0.00 0.00 63 1009.6
20220816024011 75 154 3.0 10.0 0.00 0.00 0.00 62 1009.6
20220816023509 75 188 4.0 10.0 0.00 0.00 0.00 61 1009.5
20220816023028 75 180 5.0 10.0 0.00 0.00 0.00 60 1009.5
20220816022511 76 182 5.0 9.0 0.00 0.00 0.00 58 1009.3
20220816022013 77 183 6.0 9.0 0.00 0.00 0.00 58 1009.1
20220816021510 77 214 5.0 9.0 0.00 0.00 0.00 57 1009.0
20220816021010 78 151 5.0 10.0 0.00 0.00 0.00 55 1009.1
20220816020513 79 213 6.0 10.0 0.00 0.00 0.00 54 1009.0
20220816020011 80 163 3.0 8.0 0.00 0.00 0.00 53 1008.9
20220816015515 80 173 5.0 9.0 0.00 0.00 0.00 52 1008.9
20220816015013 80 158 5.0 9.0 0.00 0.00 0.00 51 1008.8
20220816014510 81 209 3.0 10.0 0.00 0.00 0.00 51 1008.7
20220816014010 80 193 4.0 10.0 0.00 0.00 0.00 51 1008.6
20220816013511 81 180 6.0 10.0 0.00 0.00 0.00 51 1008.7
20220816013017 81 196 6.0 9.0 0.00 0.00 0.00 52 1008.7
20220816012513 82 195 5.0 11.0 0.00 0.00 0.00 51 1008.7
20220816012010 82 204 6.0 11.0 0.00 0.00 0.00 51 1008.7
20220816011518 82 220 6.0 11.0 0.00 0.00 0.00 52 1008.7
20220816011010 83 148 3.0 13.0 0.00 0.00 0.00 50 1008.6
20220816010518 83 184 5.0 13.0 0.00 0.00 0.00 50 1008.7
20220816010031 84 216 5.0 12.0 0.00 0.00 0.00 49 1008.7
20220816005509 84 212 5.0 12.0 0.00 0.00 0.00 49 1008.7
20220816005009 85 157 5.0 12.0 0.00 0.00 0.00 47 1008.4
20220816004510 86 170 3.0 8.0 0.00 0.00 0.00 46 1008.5
20220816004013 86 290 1.0 11.0 0.00 0.00 0.00 47 1008.3
20220816003510 85 187 5.0 11.0 0.00 0.00 0.00 47 1008.3
20220816003014 86 178 5.0 11.0 0.00 0.00 0.00 46 1008.3
20220816002510 86 175 4.0 11.0 0.00 0.00 0.00 46 1008.4
20220816002013 87 223 5.0 11.0 0.00 0.00 0.00 45 1008.4
20220816001510 87 176 3.0 9.0 0.00 0.00 0.00 46 1008.3
20220816001012 87 178 4.0 11.0 0.00 0.00 0.00 45 1008.2
20220816000510 87 184 3.0 11.0 0.00 0.00 0.00 45 1008.3
20220816000010 87 199 5.0 10.0 0.00 0.00 0.00 45 1008.3
20220815235512 88 188 3.0 10.0 0.00 0.00 0.00 45 1008.4
20220815235013 87 171 4.0 10.0 0.00 0.00 0.00 45 1008.4
20220815234521 88 192 4.0 10.0 0.00 0.00 0.00 44 1008.3
20220815234010 88 182 3.0 9.0 0.00 0.00 0.00 44 1008.5
20220815233510 88 186 4.0 9.0 0.00 0.00 0.00 43 1008.5
20220815233011 89 173 3.0 5.0 0.00 0.00 0.00 42 1008.6
20220815232510 89 301 2.0 10.0 0.00 0.00 0.00 42 1008.5
20220815232012 88 85 2.0 10.0 0.00 0.00 0.00 43 1008.6
20220815231514 88 187 5.0 10.0 0.00 0.00 0.00 42 1008.5
20220815231013 88 183 3.0 8.0 0.00 0.00 0.00 42 1008.6
20220815230512 88 178 3.0 8.0 0.00 0.00 0.00 42 1008.6
20220815230012 88 198 4.0 9.0 0.00 0.00 0.00 43 1008.7
20220815225510 88 176 5.0 9.0 0.00 0.00 0.00 42 1008.6
20220815225011 88 183 4.0 9.0 0.00 0.00 0.00 43 1008.6
20220815224513 88 256 3.0 8.0 0.00 0.00 0.00 42 1008.7
20220815224011 89 225 3.0 8.0 0.00 0.00 0.00 42 1008.8
20220815223514 88 218 4.0 12.0 0.00 0.00 0.00 43 1008.9
20220815223024 88 287 2.0 12.0 0.00 0.00 0.00 44 1008.9
20220815222511 88 178 4.0 9.0 0.00 0.00 0.00 42 1008.9
20220815222010 89 166 3.0 8.0 0.00 0.00 0.00 42 1008.9
20220815221516 88 315 2.0 10.0 0.00 0.00 0.00 42 1009.0
20220815221009 89 271 4.0 11.0 0.00 0.00 0.00 42 1009.0
20220815220510 88 172 3.0 11.0 0.00 0.00 0.00 43 1009.1
20220815220020 88 174 3.0 10.0 0.00 0.00 0.00 43 1009.2
20220815215509 89 269 4.0 9.0 0.00 0.00 0.00 42 1009.4
20220815215009 89 206 4.0 10.0 0.00 0.00 0.00 42 1009.4
20220815214527 88 313 4.0 10.0 0.00 0.00 0.00 42 1009.4
20220815214011 89 240 2.0 9.0 0.00 0.00 0.00 42 1009.3
20220815213516 89 184 3.0 8.0 0.00 0.00 0.00 43 1009.3
20220815213041 89 267 4.0 8.0 0.00 0.00 0.00 43 1009.3
20220815212510 89 269 3.0 8.0 0.00 0.00 0.00 43 1009.5
20220815212009 88 210 3.0 10.0 0.00 0.00 0.00 43 1009.6
20220815211515 87 174 5.0 12.0 0.00 0.00 0.00 44 1009.7
20220815211009 88 188 5.0 12.0 0.00 0.00 0.00 42 1009.8
20220815210511 88 190 3.0 10.0 0.00 0.00 0.00 44 1009.8
20220815210009 88 218 4.0 10.0 0.00 0.00 0.00 45 1009.8
20220815205508 88 183 6.0 11.0 0.00 0.00 0.00 44 1009.8
20220815205015 88 300 3.0 13.0 0.00 0.00 0.00 45 1010.0
20220815204516 89 203 6.0 13.0 0.00 0.00 0.00 43 1010.1
20220815204011 88 251 1.0 10.0 0.00 0.00 0.00 45 1010.0
20220815203510 88 281 6.0 11.0 0.00 0.00 0.00 45 1010.1
20220815203009 88 296 3.0 11.0 0.00 0.00 0.00 45 1010.2
20220815202511 89 166 5.0 11.0 0.00 0.00 0.00 44 1010.2
20220815202009 89 223 5.0 11.0 0.00 0.00 0.00 44 1010.2
20220815201516 89 157 5.0 11.0 0.00 0.00 0.00 45 1010.2
20220815201009 90 178 3.0 10.0 0.00 0.00 0.00 44 1010.2
20220815200508 89 153 3.0 10.0 0.00 0.00 0.00 46 1010.2
20220815200025 89 266 3.0 8.0 0.00 0.00 0.00 46 1010.4
20220815195509 89 157 3.0 8.0 0.00 0.00 0.00 46 1010.3
20220815195014 89 276 3.0 8.0 0.00 0.00 0.00 46 1010.2
20220815194512 90 168 3.0 8.0 0.00 0.00 0.00 45 1010.3
20220815194011 89 182 2.0 8.0 0.00 0.00 0.00 46 1010.3
20220815193509 88 255 3.0 8.0 0.00 0.00 0.00 46 1010.3
20220815193016 89 279 3.0 6.0 0.00 0.00 0.00 45 1010.3
20220815192510 88 150 2.0 9.0 0.00 0.00 0.00 46 1010.5
20220815192008 87 187 3.0 9.0 0.00 0.00 0.00 46 1010.6
20220815191519 88 204 3.0 6.0 0.00 0.00 0.00 47 1010.7
20220815191011 87 225 3.0 7.0 0.00 0.00 0.00 47 1010.7
20220815190511 87 153 3.0 7.0 0.00 0.00 0.00 48 1010.7
20220815190015 86 249 2.0 8.0 0.00 0.00 0.00 49 1010.7
20220815185509 85 237 3.0 8.0 0.00 0.00 0.00 51 1010.8
20220815185011 86 294 2.0 7.0 0.00 0.00 0.00 50 1010.8
20220815184523 85 147 2.0 7.0 0.00 0.00 0.00 50 1010.8
20220815184010 86 245 2.0 8.0 0.00 0.00 0.00 49 1010.9
20220815183509 85 284 2.0 8.0 0.00 0.00 0.00 50 1010.9
20220815183011 85 224 3.0 8.0 0.00 0.00 0.00 50 1011.0
20220815182514 84 308 1.0 4.0 0.00 0.00 0.00 53 1011.0
20220815182010 84 313 2.0 4.0 0.00 0.00 0.00 52 1011.1
20220815181528 84 313 2.0 4.0 0.00 0.00 0.00 53 1011.1
20220815181009 83 290 2.0 5.0 0.00 0.00 0.00 53 1011.2
20220815180515 83 308 2.0 5.0 0.00 0.00 0.00 54 1011.1
20220815180010 83 314 2.0 5.0 0.00 0.00 0.00 54 1011.2
20220815175512 83 284 1.0 3.0 0.00 0.00 0.00 55 1011.2
20220815175011 82 280 1.0 4.0 0.00 0.00 0.00 57 1011.2
20220815174520 81 244 1.0 5.0 0.00 0.00 0.00 58 1011.2
20220815174009 80 6 2.0 5.0 0.00 0.00 0.00 60 1011.2
20220815173511 80 217 3.0 5.0 0.00 0.00 0.00 61 1011.1
20220815173036 80 311 1.0 5.0 0.00 0.00 0.00 60 1011.2
20220815172511 80 145 1.0 5.0 0.00 0.00 0.00 62 1011.2
20220815172011 79 144 2.0 5.0 0.00 0.00 0.00 64 1011.2
20220815171521 78 157 2.0 5.0 0.00 0.00 0.00 65 1011.3
20220815171009 78 285 2.0 6.0 0.00 0.00 0.00 66 1011.3
20220815170510 77 280 3.0 6.0 0.00 0.00 0.00 67 1011.3
20220815170014 78 259 2.0 5.0 0.00 0.00 0.00 66 1011.3
20220815165511 78 225 2.0 5.0 0.00 0.00 0.00 67 1011.3
20220815165010 77 280 2.0 4.0 0.00 0.00 0.00 68 1011.3
20220815164512 77 264 1.0 4.0 0.00 0.00 0.00 68 1011.3
20220815164010 76 164 2.0 5.0 0.00 0.00 0.00 71 1011.2
20220815163510 76 287 3.0 5.0 0.00 0.00 0.00 71 1011.3
20220815163010 76 309 2.0 5.0 0.00 0.00 0.00 70 1011.3
20220815162510 76 191 2.0 5.0 0.00 0.00 0.00 70 1011.2
20220815162010 76 197 1.0 5.0 0.00 0.00 0.00 70 1011.2
20220815161509 76 334 1.0 6.0 0.00 0.00 0.00 71 1011.2
20220815161011 75 189 3.0 6.0 0.00 0.00 0.00 72 1011.3
20220815160510 75 169 1.0 5.0 0.00 0.00 0.00 73 1011.2
20220815160011 74 195 2.0 4.0 0.00 0.00 0.00 74 1011.2
20220815155512 74 266 2.0 4.0 0.00 0.00 0.00 75 1011.4
20220815155022 74 223 1.0 4.0 0.00 0.00 0.00 74 1011.3
20220815154523 74 298 1.0 5.0 0.00 0.00 0.00 76 1011.3
20220815154011 73 204 3.0 5.0 0.00 0.00 0.00 75 1011.2
20220815153511 73 162 2.0 4.0 0.00 0.00 0.00 76 1011.2
20220815153014 74 95 1.0 4.0 0.00 0.00 0.00 75 1011.1
20220815152510 73 180 2.0 4.0 0.00 0.00 0.00 76 1011.1
20220815152019 73 195 0.0 4.0 0.00 0.00 0.00 78 1011.2
20220815151517 73 182 2.0 4.0 0.00 0.00 0.00 78 1011.1
20220815151010 73 188 1.0 4.0 0.00 0.00 0.00 78 1011.1
20220815150519 72 205 1.0 3.0 0.00 0.00 0.00 78 1011.1
20220815150009 72 178 1.0 3.0 0.00 0.00 0.00 79 1011.2
20220815145510 71 0 0.0 2.0 0.00 0.00 0.00 80 1011.1
20220815145010 71 203 1.0 3.0 0.00 0.00 0.00 80 1011.0
20220815144509 71 188 1.0 3.0 0.00 0.00 0.00 80 1011.0
20220815144013 71 297 0.0 3.0 0.00 0.00 0.00 80 1011.0
20220815143509 70 200 1.0 3.0 0.00 0.00 0.00 79 1011.0
20220815143010 70 0 0.0 2.0 0.00 0.00 0.00 80 1010.9
20220815142513 70 190 0.0 2.0 0.00 0.00 0.00 79 1010.9
20220815142012 70 114 0.0 1.0 0.00 0.00 0.00 77 1010.8
20220815141519 69 0 0.0 1.0 0.00 0.00 0.00 76 1010.7
20220815141013 68 0 0.0 1.0 0.00 0.00 0.00 77 1010.6
20220815140511 68 112 0.0 1.0 0.00 0.00 0.00 76 1010.7
20220815140014 67 112 1.0 1.0 0.00 0.00 0.00 76 1010.7
20220815135510 66 139 0.0 2.0 0.00 0.00 0.00 78 1010.8
20220815135012 66 140 0.0 2.0 0.00 0.00 0.00 79 1010.8
20220815134509 65 86 0.0 1.0 0.00 0.00 0.00 80 1010.8
20220815134011 65 0 0.0 1.0 0.00 0.00 0.00 81 1010.7
20220815133510 65 74 0.0 1.0 0.00 0.00 0.00 81 1010.7
20220815133009 65 0 0.0 1.0 0.00 0.00 0.00 82 1010.7
20220815132514 65 0 0.0 1.0 0.00 0.00 0.00 82 1010.8
20220815132009 65 0 0.0 1.0 0.00 0.00 0.00 83 1010.8
20220815131509 65 74 0.0 2.0 0.00 0.00 0.00 83 1010.9
20220815131010 65 74 1.0 2.0 0.00 0.00 0.00 84 1011.0
20220815130511 64 0 0.0 0.0 0.00 0.00 0.00 84 1011.0
20220815130011 64 0 0.0 0.0 0.00 0.00 0.00 84 1010.8
20220815125511 64 189 0.0 0.0 0.00 0.00 0.00 85 1010.9
20220815125011 63 0 0.0 0.0 0.00 0.00 0.00 84 1010.8
20220815124517 64 0 0.0 0.0 0.00 0.00 0.00 83 1010.9
20220815124013 64 0 0.0 0.0 0.00 0.00 0.00 83 1011.0
20220815123512 64 0 0.0 0.0 0.00 0.00 0.00 82 1011.0
20220815123021 64 0 0.0 0.0 0.00 0.00 0.00 83 1011.0
20220815122512 65 0 0.0 0.0 0.00 0.00 0.00 82 1011.1
20220815122009 65 0 0.0 0.0 0.00 0.00 0.00 82 1011.1
20220815121524 65 0 0.0 0.0 0.00 0.00 0.00 82 1011.2
20220815121014 65 0 0.0 0.0 0.00 0.00 0.00 82 1011.1
20220815120510 66 0 0.0 0.0 0.00 0.00 0.00 84 1011.1
20220815120037 66 0 0.0 0.0 0.00 0.00 0.00 85 1011.0
20220815115511 66 0 0.0 0.0 0.00 0.00 0.00 86 1010.9
20220815115012 66 0 0.0 0.0 0.00 0.00 0.00 86 1011.0
20220815114532 66 0 0.0 0.0 0.00 0.00 0.00 86 1011.0
20220815114011 66 0 0.0 0.0 0.00 0.00 0.00 86 1010.9
20220815113511 66 0 0.0 0.0 0.00 0.00 0.00 86 1011.0
20220815113018 67 0 0.0 1.0 0.00 0.00 0.00 86 1011.0
20220815112511 66 0 0.0 1.0 0.00 0.00 0.00 85 1011.0
20220815112010 66 0 0.0 2.0 0.00 0.00 0.00 86 1011.0
20220815111511 66 189 1.0 2.0 0.00 0.00 0.00 87 1011.0
20220815111010 66 188 0.0 1.0 0.00 0.00 0.00 87 1011.0
20220815110510 66 0 0.0 1.0 0.00 0.00 0.00 87 1011.0
20220815110011 65 188 0.0 1.0 0.00 0.00 0.00 87 1011.0
20220815105511 65 0 0.0 0.0 0.00 0.00 0.00 88 1011.0
20220815105011 65 0 0.0 0.0 0.00 0.00 0.00 87 1011.2
20220815104534 65 0 0.0 0.0 0.00 0.00 0.00 86 1011.3
20220815104012 65 0 0.0 0.0 0.00 0.00 0.00 87 1011.2
20220815103510 65 0 0.0 0.0 0.00 0.00 0.00 86 1011.3
20220815103013 65 0 0.0 0.0 0.00 0.00 0.00 87 1011.5
20220815102509 65 0 0.0 0.0 0.00 0.00 0.00 86 1011.4
20220815102015 65 0 0.0 0.0 0.00 0.00 0.00 86 1011.3
20220815101533 65 0 0.0 0.0 0.00 0.00 0.00 85 1011.3
20220815101011 66 0 0.0 0.0 0.00 0.00 0.00 85 1011.2
20220815100509 66 0 0.0 0.0 0.00 0.00 0.00 84 1011.2
20220815100014 66 0 0.0 0.0 0.00 0.00 0.00 85 1011.3
20220815095509 66 0 0.0 0.0 0.00 0.00 0.00 85 1011.4
20220815095015 67 0 0.0 0.0 0.00 0.00 0.00 85 1011.4
20220815094509 67 188 0.0 0.0 0.00 0.00 0.00 85 1011.4
20220815094014 66 188 0.0 0.0 0.00 0.00 0.00 86 1011.3
20220815093508 66 0 0.0 0.0 0.00 0.00 0.00 86 1011.5
20220815093014 67 0 0.0 0.0 0.00 0.00 0.00 85 1011.5
20220815092510 67 0 0.0 0.0 0.00 0.00 0.00 84 1011.5
20220815092011 67 0 0.0 1.0 0.00 0.00 0.00 85 1011.6
20220815091514 67 0 0.0 1.0 0.00 0.00 0.00 84 1011.6
20220815091009 67 188 0.0 1.0 0.00 0.00 0.00 85 1011.6
20220815090510 67 0 0.0 0.0 0.00 0.00 0.00 84 1011.9
20220815090010 68 0 0.0 0.0 0.00 0.00 0.00 84 1011.8
20220815085512 68 188 0.0 0.0 0.00 0.00 0.00 84 1011.9
20220815085013 68 0 0.0 1.0 0.00 0.00 0.00 84 1011.8
20220815084512 68 0 0.0 1.0 0.00 0.00 0.00 84 1011.9
20220815084009 68 185 0.0 1.0 0.00 0.00 0.00 84 1011.9
20220815083509 68 0 0.0 2.0 0.00 0.00 0.00 84 1012.0
20220815083009 68 184 1.0 2.0 0.00 0.00 0.00 84 1012.0
20220815082509 68 195 0.0 1.0 0.00 0.00 0.00 85 1011.9
20220815082009 68 195 0.0 1.0 0.00 0.00 0.00 84 1012.0
20220815081513 68 0 0.0 1.0 0.00 0.00 0.00 84 1012.0
20220815081014 68 197 0.0 1.0 0.00 0.00 0.00 85 1012.0
20220815080511 69 180 0.0 2.0 0.00 0.00 0.00 84 1012.1
20220815080013 69 180 1.0 2.0 0.00 0.00 0.00 84 1012.1
20220815075508 69 200 1.0 1.0 0.00 0.00 0.00 84 1012.2
20220815075011 69 185 0.0 1.0 0.00 0.00 0.00 84 1012.2
20220815074513 69 176 0.0 3.0 0.00 0.00 0.00 84 1012.3
20220815074009 69 176 1.0 3.0 0.00 0.00 0.00 84 1012.4
20220815073510 69 185 1.0 2.0 0.00 0.00 0.00 84 1012.3
20220815073010 69 193 1.0 3.0 0.00 0.00 0.00 84 1012.2
20220815072510 69 185 2.0 3.0 0.00 0.00 0.00 84 1012.2
20220815072014 69 171 0.0 2.0 0.00 0.00 0.00 84 1012.3
20220815071514 69 0 0.0 2.0 0.00 0.00 0.00 83 1012.3
20220815071010 69 198 1.0 2.0 0.00 0.00 0.00 83 1012.3
20220815070510 69 0 0.0 2.0 0.00 0.00 0.00 83 1012.2